Simultaneous Nadir Overpasses (SNOs) Predictions

Prediction of SNOs between AQUA and METOP-B Satellite Orbit:

Table of predicted SNOs for the next 14.0 days since TLE Epoch: 2/20/2016
Index Date (AQUA) Time (AQUA) Lat,Lon (AQUA) SZA (AQUA ) Date (METOP-B) Time (METOP-B) Lat,Lon (METOP-B) SZA (METOP-B ) Distance(km) Time Diff (sec)
1 02/21/2016 04:17:24 73.85, 109.81 84.74 02/21/2016 04:16:57 73.87, 109.85 84.77 2.36 27
2 02/21/2016 05:06:51 -73.93, -82.72 95.19 02/21/2016 05:07:37 -73.94, -82.64 95.19 2.78 46
3 02/23/2016 23:51:42 73.86, 176.23 83.72 02/23/2016 23:51:17 73.88, 176.29 83.75 3.11 25
4 02/24/2016 00:41:09 -73.93, -16.30 96.21 02/24/2016 00:41:58 -73.91, -16.32 96.25 2.87 49
5 02/26/2016 18:36:18 -73.14, 76.56 98.10 02/26/2016 18:35:13 -73.09, 73.57 97.99 96.66 65
6 02/26/2016 19:26:00 73.89,-117.41 82.71 02/26/2016 19:25:37 73.89,-117.29 82.71 3.54 23
7 02/26/2016 20:15:26 -73.91, 50.19 97.29 02/26/2016 20:16:18 -73.92, 50.11 97.28 2.84 52
8 02/29/2016 14:10:37 -73.29, 142.68 99.00 02/29/2016 14:09:30 -73.20, 140.20 98.96 79.86 67
9 02/29/2016 15:00:16 73.89, -50.98 81.65 02/29/2016 14:59:56 73.89, -50.88 81.64 2.96 20
10 02/29/2016 15:49:42 -73.91, 116.63 98.36 02/29/2016 15:50:37 -73.92, 116.52 98.35 3.61 55
11 03/03/2016 09:44:56 -73.42,-151.15 99.94 03/03/2016 09:43:47 -73.35,-153.06 99.91 61.03 69
12 03/03/2016 10:34:32 73.87, 15.51 80.54 03/03/2016 10:34:16 73.89, 15.51 80.56 2.12 16
13 03/03/2016 11:23:59 -73.93,-176.99 99.41 03/03/2016 11:24:57 -73.92,-177.07 99.43 2.69 58




NCC Satellite Simultaneous Nadir Overpasses (SNOs) Prediction Service
